CZ-6A DEB, 54900

Orbit data source: Space-Track

CZ-6A DEB, 54900 is space debris in SSO originally from a launch on Fri, 11 Nov 2022 UTC launched from the Taiyaun Space Center, China (TSC). Debris objects in space refer to the collection of defunct objects orbiting the Earth. Examples of debris include non-operational satellites, rocket bodies, and fragments generated from explosions, collisions, or faulty payload assembly.

Loading next visibility...
Identifier
54900, 2022-151QM
Orbit
SSO
Country
Flag of CNCN / PRC
Related business
Manufacturer
SAST
Mission
Spacecraft
Bus & Motor
Unknown
Mass
Unknown
Launch date (UTC)
2022-11-11 (4 years ago)
Launch vehicle
Unknown
Launch site
Taiyaun Space Center, China (TSC)
Object type
Payload
Rocket body
Debris
Shape & HBR
Unknown shape, 0.1 m
Radar Cross Section
Medium (>0.1 m² and <1 m²)

Expand to show TLE details & history
Last TLE update: 19 hours ago

TLE from 19 hours ago
0 CZ-6A DEB
1 54900U 22151QM  26235.45632968  .00000177  00000-0  12282-3 0  9993
2 54900  98.8571 230.7150 0092347 204.1660 155.5164 14.08904419191413
Epoch: 2026-08-23T10:57Z
TLE epoch observation values (Epoch: 2026-08-23T10:57:06.884Z)
Latitude
-0.00004°
Longitude
94.6842°
Altitude
926.992 km
Speed
7.357 km/s
True Right ascension
15h 22m 51s
True Declination
0° 00' 00"
Sunlit
Object was in daylight at epoch
Visualization orbit readout
Latitude
Unknown
Longitude
Unknown
Altitude
Unknown
Speed
Unknown
Apparent Right ascension
Unknown
Apparent Declination
Unknown
Sunlit
N/A
Visualization observer readout
Local Sidereal Time
21:13:05
Azimuth
Unknown
Elevation
Unknown
Doppler factor
Unknown
Orbital elements
Apogee altitude
927.148 km
Perigee altitude
793.459 km
Semi-major axis
7,238.44 km
Eccentricity
0.00923
Inclination
98.8571°
RAAN
230.715°
Arg. of periapsis
204.166°
True anomaly
155.9504°
Mean anomaly
155.5164°
Eccentric anomaly
155.73385°
Mean motion
3.52432 °/min
Orbital period
102.15 mins
BSTAR
0.00012282
Loading maneuver chart data...
Computing Atmospheric mass density...
Loading historical data...
Loading historical data...
Loading historical data...
Loading historical data...
Loading historical data...
Loading historical data...
Loading historical data...

Documentation

Showing up to 5 results
|